Location: Newark
(50.4348°N, 30.5552°E)
Time: 05:39:22
(UTC+00:00)

Tiros 1 despin weight - Pass Details

Date: 25 January 2020
Orbit: 594 x 642 km, 48.2° (Epoch: 27 February)

Event Time Altitude Azimuth Distance (km) Brightness Sun altitude
Rises 09:42:24 0° 226° (SW) 2,858 ? 20.3°
Reaches altitude 10° 09:44:50 10° 217° (SW) 1,964 ? 20.3°
Maximum altitude 09:48:54 34° 153° (SSE) 1,031 ? 20.4°
Drops below altitude 10° 09:53:02 10° 89° (E) 1,999 ? 20.4°
Sets 09:55:31 0° 80° (E) 2,917 ? 20.4°
